^^

METAR Reports from Airports

within 500 km


 What is a METAR ??? 

First is the nearest airport (Thessaloniki LGTS 6km) and
finally the most distance (Istanbul LTBA 494km).
Also some reports have less data, because the original
ones are not complete or have wrong format.
Go to METAR Reports from Weather Stations )  
Alphabetical Quick Jump List to the 48 Airports
(AFB)Air Force Base
LGTS - Airport "Makedonia"
Thessaloniki - Central Macedonia - Greece
Lat: 40.5167 - Long: 22.9667 - Elev: 7m
Distance from Vouhead Weather: (S) 6km
Updated: 04/07/2022 04:50
Clear
Clear
 Wind from varies
Wind: Varies 6 km/h
Temperature: 25°C
Dew Point: 16°C
Humidity: 57%
Barometer: 1015 hPa
Summary: Clear
Visibility: Greater than 10 km
2022/07/04 01:50 LGTS 040150Z VRB03KT CAVOK 25/16 Q1015 NOSIG
LGKZ - Airport "Filippos"
Kozani - West Macedonia - Greece
Lat: 40.2833 - Long: 21.8333 - Elev: 628m
Distance from Vouhead Weather: (WSW) 102km
Updated: 04/07/2022 04:50

 Wind from N
Wind: N 7 km/h
Temperature: 19°C
Dew Point: 11°C
Humidity: 60%
Barometer: 1018 hPa
2022/07/04 01:50 LGKZ 040150Z AUTO 01004KT //// // ////// 19/11 Q1018 RE//
 
LGKV - Airport "Megas Alexandros"
Kavala(Chrysoupoli) - E. Macedonia & Thrace - Greece
Lat: 40.9167 - Long: 24.6167 - Elev: 5m
Distance from Vouhead Weather: (ENE) 144km
Updated: 03/07/2022 22:20
NOT CURRENT METAR
Few Clouds
Few Clouds
 Wind from calm
Wind: Calm 
Temperature: 25°C
Dew Point: 20°C
Humidity: 74%
Barometer: 1014 hPa
Clouds: Few Clouds
Visibility: 10 km
Cloud analysis: Few Clouds 610 m
2022/07/03 19:20 LGKV 031920Z 00000KT 9999 FEW020 25/20 Q1014
LGBL - Airport at Nea Anchialos
Volos(Almyros) - Thessaly - Greece
Lat: 39.2167 - Long: 22.8000 - Elev: 26m
Distance from Vouhead Weather: (S) 151km
Updated: 04/07/2022 04:50
Clear
Clear
 Wind from calm
Wind: Calm 
Temperature: 20°C
Dew Point: 14°C
Humidity: 69%
Barometer: 1014 hPa
Summary: Clear
Visibility: Greater than 10 km
2022/07/04 01:50 LGBL 040150Z 00000KT CAVOK 20/14 Q1014
 
LGSK - Airport "Alexandros Papadiamandis"
Skiathos - Thessaly Sporades - Greece
Lat: 39.1833 - Long: 23.5000 - Elev: 15m
Distance from Vouhead Weather: (SSE) 160km
Updated: 03/07/2022 22:50
NOT CURRENT METAR
Clear
Clear
 Wind from NW
Wind: NW 7 km/h
Temperature: 27°C
Heat Index: 28°C
Dew Point: 19°C
Humidity: 62%
Barometer: 1014 hPa
Summary: Clear
Visibility: Greater than 10 km
2022/07/03 19:50 LGSK 031950Z 32004KT CAVOK 27/19 Q1014
LWSK - Airport "Skopje International Airport"
Skopje(Petrovac) - Skopje Region - R.Ν.M
Lat: 41.9667 - Long: 21.6333 - Elev: 239m
Distance from Vouhead Weather: (NW) 192km
Updated: 04/07/2022 05:00
Clear
Clear
 Wind from calm
Wind: Calm 
Temperature: 19°C
Dew Point: 17°C
Humidity: 88%
Barometer: 1017 hPa
Summary: Clear
Visibility: Greater than 10 km
2022/07/04 02:00 LWSK 040200Z 00000KT CAVOK 19/17 Q1017 NOSIG
 
LWOH - Airport "St. Paul the Apostle"
Ohrid - Southwestern Region - R.Ν.M
Lat: 41.1167 - Long: 20.8000 - Elev: 761m
Distance from Vouhead Weather: (WNW) 193km
Updated: 03/07/2022 22:00
NOT CURRENT METAR
Few Clouds
Few Clouds
 Wind from NW
Wind: NW 6 km/h
Temperature: 23°C
Dew Point: 16°C
Humidity: 65%
Barometer: 1018 hPa
Clouds: Few Clouds
Visibility: 10 km
Cloud analysis: Few Clouds 1829 m
2022/07/03 19:00 LWOH 031900Z 31003KT 9999 FEW060 23/16 Q1018
LGLM - Airport "Hephaestus"
Lemnos - North Aegean - Greece
Lat: 39.9167 - Long: 25.2333 - Elev: 5m
Distance from Vouhead Weather: (ESE) 205km
Updated: 04/07/2022 04:50
Clear
Clear
 Wind from NE
Wind: NE 24 km/h, Gust: 43 km/h
Temperature: 22°C
Dew Point: 15°C
Humidity: 65%
Barometer: 1013 hPa
Summary: Clear
Visibility: Greater than 10 km
2022/07/04 01:50 LGLM 040150Z 04013G23KT CAVOK 22/15 Q1013
 
LGIO - Airport "King Pyrrhus"
Ioannina - Epirus - Greece
Lat: 39.7000 - Long: 20.8167 - Elev: 476m
Distance from Vouhead Weather: (WSW) 207km
Updated: 04/07/2022 04:50

 Wind from varies
Wind: Varies 4 km/h
Temperature: 19°C
Dew Point: 14°C
Humidity: 73%
Barometer: 1016 hPa
2022/07/04 01:50 LGIO 040150Z AUTO VRB02KT //// // ////// 19/14 Q1016 RE//
LGSY - Airport at Skyros
Skyros - Thessaly Sporades - Greece
Lat: 38.9667 - Long: 24.4833 - Elev: 15m
Distance from Vouhead Weather: (SE) 220km
Updated: 03/07/2022 20:50
NOT CURRENT METAR
Clear
Clear
 Wind from NNW
Wind: NNW 19 km/h
Temperature: 25°C
Dew Point: 20°C
Humidity: 74%
Barometer: 1013 hPa
Summary: Clear
Visibility: Greater than 10 km
2022/07/03 17:50 LGSY 031750Z 34010KT CAVOK 25/20 Q1013 BLU
 
LBPD - Airport at Plovdiv
Plovdiv(Krumovo) - Plovdiv - Bulgaria
Lat: 42.1333 - Long: 24.8000 - Elev: 185m
Distance from Vouhead Weather: (NE) 231km
Updated: 04/07/2022 05:00
Clear
Clear
 Wind from varies
Wind: Varies 4 km/h
Temperature: 17°C
Dew Point: 12°C
Humidity: 73%
Barometer: 1017 hPa
Clouds: Clear
Visibility: 10 km
2022/07/04 02:00 LBPD 040200Z AUTO VRB02KT 9999 NCD 17/12 Q1017
LBSF - Airport at Sofia
Sofia(Vrazhdebna) - Sofia Capital - Bulgaria
Lat: 42.6500 - Long: 23.3833 - Elev: 595m
Distance from Vouhead Weather: (N) 234km
Updated: 04/07/2022 05:00
Clear
Clear
 Wind from ESE
Wind: ESE 9 km/h
Temperature: 16°C
Dew Point: 13°C
Humidity: 83%
Barometer: 1019 hPa
Clouds: Clear
Visibility: 10 km
2022/07/04 02:00 LBSF 040200Z AUTO 12005KT 9999 NCD 16/13 Q1019 NOSIG
 
LGAL - Airport "Dimokritos"
Alexandroupolis - E. Macedonia & Thrace - Greece
Lat: 40.8500 - Long: 25.9167 - Elev: 3m
Distance from Vouhead Weather: (E) 250km
Updated: 04/07/2022 04:50
Clear
Clear
 Wind from varies
Wind: Varies 6 km/h
Temperature: 18°C
Dew Point: 14°C
Humidity: 78%
Barometer: 1015 hPa
Summary: Clear
Visibility: Greater than 10 km
2022/07/04 01:50 LGAL 040150Z VRB03KT CAVOK 18/14 Q1015
BKPR - Airport "Adem Jashari"
Prishtina - Prishtina - Kosovo
(Hellenic Ministry of Foreign Affairs, about Kosovo)
Lat: 42.5833 - Long: 21.0333 - Elev: 576m
Distance from Vouhead Weather: (NW) 276km
Updated: 04/07/2022 05:00
Clear
Clear
 Wind from varies
Wind: Varies 6 km/h
Temperature: 19°C
Dew Point: 15°C
Humidity: 78%
Barometer: 1018 hPa
Summary: Clear
Visibility: Greater than 10 km
2022/07/04 02:00 BKPR 040200Z VRB03KT CAVOK 19/15 Q1018 NOSIG
 
LGKR - Airport "Ioannis Kapodistrias"
Kerkyra - Ionian Islands - Greece
Lat: 39.6000 - Long: 19.9167 - Elev: 2m
Distance from Vouhead Weather: (WSW) 281km
Updated: 04/07/2022 04:50
Clear
Clear
 Wind from calm
Wind: Calm 
Temperature: 25°C
Dew Point: 21°C
Humidity: 79%
Barometer: 1012 hPa
Summary: Clear
Visibility: Greater than 10 km
2022/07/04 01:50 LGKR 040150Z 00000KT CAVOK 25/21 Q1012 NOSIG
LATI - Airport "Mother Teresa"
Tirana(Rinas) - Tirana - Albania
Lat: 41.3167 - Long: 19.7667 - Elev: 90m
Distance from Vouhead Weather: (WNW) 282km
Updated: 04/07/2022 04:50
Clear
Clear
 Wind from S
Wind: S 7 km/h
Temperature: 23°C
Dew Point: 17°C
Humidity: 69%
Barometer: 1013 hPa
Summary: Clear
Visibility: Greater than 10 km
2022/07/04 01:50 LATI 040150Z 17004KT CAVOK 23/17 Q1013 NOSIG
 
LGEL - Airport at Elefsis(AFB)
Elefsis - Attica - Greece
Lat: 38.0667 - Long: 23.5500 - Elev: 31m
Distance from Vouhead Weather: (S) 282km
Updated: 04/07/2022 04:50
Clear
Clear
 Wind from NNW
Wind: NNW 22 km/h
Temperature: 26°C
Dew Point: 10°C
Humidity: 37%
Barometer: 1011 hPa
Summary: Clear
Visibility: Greater than 10 km
2022/07/04 01:50 LGEL 040150Z 33012KT CAVOK 26/10 Q1011
LGPZ - Airport at Preveza
Preveza(Aktion) - Epirus - Greece
Lat: 38.6167 - Long: 20.7667 - Elev: 4m
Distance from Vouhead Weather: (SW) 288km
Updated: 04/07/2022 04:50
Clear
Clear
 Wind from ENE
Wind: ENE 11 km/h
Temperature: 24°C
Dew Point: 17°C
Humidity: 65%
Barometer: 1012 hPa
Summary: Clear
Visibility: Greater than 10 km
2022/07/04 01:50 LGPZ 040150Z 06006KT CAVOK 24/17 Q1012
 
LGRX - Airport at Patras(AFB)
Patras(Araxos) - West Greece - Greece
Lat: 38.1667 - Long: 21.4167 - Elev: 15m
Distance from Vouhead Weather: (SSW) 299km
Updated: 04/07/2022 04:50
Clear
Clear
 Wind from E
Wind: E 7 km/h
Temperature: 26°C
Dew Point: 15°C
Humidity: 51%
Barometer: 1011 hPa
Summary: Clear
Visibility: Greater than 10 km
2022/07/04 01:50 LGRX 040150Z 10004KT CAVOK 26/15 Q1011
LGAV - Airport "Eleftherios Venizelos"
Athens(Spata) - Attica - Greece
Lat: 37.9333 - Long: 23.9500 - Elev: 94m
Distance from Vouhead Weather: (SSE) 305km
Updated: 04/07/2022 04:50
Clear
Clear
 Wind from NNE
Wind: NNE 20 km/h
Temperature: 22°C
Dew Point: 10°C
Humidity: 47%
Barometer: 1012 hPa
Summary: Clear
Visibility: Greater than 10 km
2022/07/04 01:50 LGAV 040150Z 02011KT CAVOK 22/10 Q1012 NOSIG
 
LYNI - Airport "Constantine The Great"
Nis - Southern and Eastern Serbia - Serbia
Lat: 43.3167 - Long: 21.8833 - Elev: 202m
Distance from Vouhead Weather: (NNW) 319km
Updated: 04/07/2022 05:00
Clear
Clear
 Wind from calm
Wind: Calm 
Temperature: 18°C
Dew Point: 18°C
Humidity: 100%
Barometer: 1016 hPa
Summary: Clear
Visibility: Greater than 10 km
2022/07/04 02:00 LYNI 040200Z 00000KT CAVOK 18/18 Q1016 NOSIG
LGAD - Airport at Andravida(AFB)
Andravida - West Greece - Greece
Lat: 37.9167 - Long: 21.2667 - Elev: 12m
Distance from Vouhead Weather: (SSW) 329km
Updated: 04/07/2022 04:50
Clear
Clear
 Wind from varies
Wind: Varies 6 km/h
Temperature: 19°C
Dew Point: 12°C
Humidity: 64%
Barometer: 1011 hPa
Summary: Clear
Visibility: Greater than 10 km
2022/07/04 01:50 LGAD 040150Z VRB03KT CAVOK 19/12 Q1011
 
LGKF - Airport at Kefalonia
Kefalonia - Ionian Islands - Greece
Lat: 38.1167 - Long: 20.5000 - Elev: 18m
Distance from Vouhead Weather: (SW) 346km
Updated: 04/07/2022 00:50
NOT CURRENT METAR
Clear
Clear
 Wind from NNW
Wind: NNW 17 km/h
Temperature: 28°C
Heat Index: 29°C
Dew Point: 19°C
Humidity: 58%
Barometer: 1012 hPa
Summary: Clear
Visibility: Greater than 10 km
2022/07/03 21:50 LGKF 032150Z 34009KT CAVOK 28/19 Q1012
LGMT - Airport "Odysseas Elytis"
Lesvos - North Aegean - Greece
Lat: 39.0500 - Long: 26.6000 - Elev: 17m
Distance from Vouhead Weather: (ESE) 353km
Updated: 04/07/2022 04:50
Clear
Clear
 Wind from W
Wind: W 7 km/h
Temperature: 21°C
Dew Point: 12°C
Humidity: 57%
Barometer: 1011 hPa
Summary: Clear
Visibility: Greater than 10 km
2022/07/04 01:50 LGMT 040150Z 28004KT CAVOK 21/12 Q1011
 
LGZA - Airport "Dionysios Solomos"
Zakynthos - Ionian Islands - Greece
Lat: 37.7500 - Long: 20.8667 - Elev: 3m
Distance from Vouhead Weather: (SSW) 362km
Updated: 04/07/2022 04:50
Clear
Clear
 Wind from NNW
Wind: NNW 11 km/h
Temperature: 26°C
Dew Point: 18°C
Humidity: 61%
Barometer: 1011 hPa
Summary: Clear
Visibility: Greater than 10 km
2022/07/04 01:50 LGZA 040150Z 34006KT CAVOK 26/18 Q1011
LBGO - Airport at Gorna Oryahovitsa
Gorna Oryahovitsa - Veliko Tarnovo - Bulgaria
Lat: 43.1500 - Long: 25.7167 - Elev: 86m
Distance from Vouhead Weather: (NE) 366km
Updated: 04/07/2022 05:00
Clear
Clear
 Wind from E
Wind: E 7 km/h
Temperature: 17°C
Dew Point: 14°C
Humidity: 83%
Barometer: 1016 hPa
Clouds: Clear
Visibility: 10 km
2022/07/04 02:00 LBGO 040200Z AUTO 09004KT 9999 NCD 17/14 Q1016
 
LGHI - Airport "Omiros"
Chios - Ionian Islands - Greece
Lat: 38.3167 - Long: 26.1167 - Elev: 4m
Distance from Vouhead Weather: (SE) 368km
Updated: 04/07/2022 04:50
Clear
Clear
 Wind from N
Wind: N 24 km/h
Temperature: 24°C
Dew Point: 12°C
Humidity: 47%
Barometer: 1008 hPa
Summary: Clear
Visibility: Greater than 10 km
2022/07/04 01:50 LGHI 040150Z 36013KT CAVOK 24/12 Q1008
LYPG - Airport at Podgorica
Podgorica - Golubovci - Montenegro
Lat: 42.3667 - Long: 19.2500 - Elev: 43m
Distance from Vouhead Weather: (NW) 369km
Updated: 04/07/2022 05:00
Clear
Clear
 Wind from varies
Wind: Varies 2 km/h
Temperature: 27°C
Heat Index: 27°C
Dew Point: 14°C
Humidity: 45%
Barometer: 1013 hPa
Summary: Clear
Visibility: Greater than 10 km
2022/07/04 02:00 LYPG 040200Z VRB01KT CAVOK 27/14 Q1013 NOSIG
 
LGSO - Airport "Demetrius Vikelas"
Syros - South Aegean - Greece
Lat: 37.4167 - Long: 24.9500 - Elev: 72m
Distance from Vouhead Weather: (SSE) 390km
Updated: 04/07/2022 04:50

 Wind from NNE
Wind: NNE 43 km/h
Temperature: 23°C
Dew Point: 12°C
Humidity: 50%
Barometer: 1009 hPa
2022/07/04 01:50 LGSO 040150Z AUTO 03023KT //// // ////// 23/12 Q1009 RE//
LGKL - Airport at Kalamata(AFB)
Kalamata - Peloponnese - Greece
Lat: 37.0667 - Long: 22.0167 - Elev: 8m
Distance from Vouhead Weather: (SSW) 398km
Updated: 04/07/2022 04:50
Clear
Clear
 Wind from calm
Wind: Calm 
Temperature: 18°C
Dew Point: 15°C
Humidity: 83%
Barometer: 1011 hPa
Summary: Clear
Visibility: Greater than 10 km
2022/07/04 01:50 LGKL 040150Z 00000KT CAVOK 18/15 Q1011
 
LIBY - Airport at Santa Maria di Leuca
Santa Maria di Leuca - Apulia(Lecce) - Italy
Lat: 39.8167 - Long: 18.3500 - Elev: 112m
Distance from Vouhead Weather: (W) 402km
Updated: 03/07/2022 20:55
NOT CURRENT METAR
Clear
Clear
 Wind from NE
Wind: NE 6 km/h
Temperature: 30°C
Heat Index: 37°C
Dew Point: 26°C
Humidity: 79%
Barometer: 1012 hPa
Summary: Clear
Visibility: Greater than 10 km
2022/07/03 17:55 LIBY 031755Z 04003KT CAVOK 30/26 Q1012 RMK SKC QUK 1 QUL 0 VIS MAR 12 KM VIS MIN 9999
LGMK - Airport at Mykonos
Mykonos - South Aegean - Greece
Lat: 37.4333 - Long: 25.3500 - Elev: 123m
Distance from Vouhead Weather: (SSE) 404km
Updated: 04/07/2022 04:50
Clear
Clear
 Wind from varies
Wind: Varies 0 km/h
Temperature: 23°C
Dew Point: 19°C
Humidity: 78%
Barometer: 1008 hPa
Summary: Clear
Visibility: Greater than 10 km
2022/07/04 01:50 LGMK 040150Z /////KT CAVOK 23/19 Q1008
 
LYTV - Airport at Tivat
Tivat - Tivat - Montenegro
Lat: 42.3833 - Long: 18.7167 - Elev: 5m
Distance from Vouhead Weather: (WNW) 408km
Updated: 04/07/2022 05:00
Clear
Clear
 Wind from varies
Wind: Varies 2 km/h
Temperature: 21°C
Dew Point: 19°C
Humidity: 88%
Barometer: 1013 hPa
Summary: Clear
Visibility: Greater than 10 km
2022/07/04 02:00 LYTV 040200Z AUTO VRB01KT CAVOK 21/19 Q1013
LIBN - Airport at Galatina(AFB)
Galatina - Apulia(Lecce) - Italy
Lat: 40.2167 - Long: 18.1333 - Elev: 61m
Distance from Vouhead Weather: (W) 412km
Updated: 04/07/2022 04:55
Clear
Clear
 Wind from NW
Wind: NW 7 km/h
Temperature: 24°C
Dew Point: 23°C
Humidity: 94%
Barometer: 1014 hPa
Summary: Clear
Visibility: Greater than 10 km
2022/07/04 01:55 LIBN 040155Z 31004KT CAVOK 24/23 Q1014
 
LYKV - Airport at Kraljevo & Ladevci
Kraljevo(Obrva) - Sumadija & W. Serbia - Serbia
Lat: 43.8167 - Long: 20.5833 - Elev: 209m
Distance from Vouhead Weather: (NNW) 412km
Updated: 04/07/2022 05:00
Clear
Clear
 Wind from varies
Wind: Varies 4 km/h
Temperature: 20°C
Dew Point: 19°C
Humidity: 94%
Barometer: 1016 hPa
Summary: Clear
Visibility: Greater than 10 km
2022/07/04 02:00 LYKV 040200Z VRB02KT CAVOK 20/19 Q1016 NOSIG
LTBU - Airport at Corlu(AFB)
Corlu - Marmara(Tekirdag) - Turkey
Lat: 41.1167 - Long: 27.9167 - Elev: 173m
Distance from Vouhead Weather: (E) 420km
Updated: 04/07/2022 04:50
Clear
Clear
 Wind from N
Wind: N 19 km/h
Temperature: 18°C
Dew Point: 14°C
Humidity: 78%
Barometer: 1016 hPa
Summary: Clear
Visibility: Greater than 10 km
2022/07/04 01:50 LTBU 040150Z 01010KT CAVOK 18/14 Q1016
 
LRCV - Airport at Craiova
Craiova - Dolj - Romania
Lat: 44.3167 - Long: 23.8833 - Elev: 191m
Distance from Vouhead Weather: (N) 424km
Updated: 04/07/2022 05:00
Clear
Clear
 Wind from NNE
Wind: NNE 7 km/h
Temperature: 20°C
Dew Point: 18°C
Humidity: 88%
Barometer: 1016 hPa
Summary: Clear
Visibility: Greater than 10 km
2022/07/04 02:00 LRCV 040200Z 03004KT CAVOK 20/18 Q1016
LIBR - Airport at Brindisi
(Unofficial airport name: Del Salento)
Brindisi(Papola-Casale) - Apulia(Brindisi) - Italy
Lat: 40.6500 - Long: 17.9500 - Elev: 10m
Distance from Vouhead Weather: (W) 424km
Updated: 04/07/2022 04:50
Clear
Clear
 Wind from NW
Wind: NW 15 km/h
Temperature: 25°C
Dew Point: 22°C
Humidity: 83%
Barometer: 1014 hPa
Summary: Clear
Visibility: Greater than 10 km
2022/07/04 01:50 LIBR 040150Z 31008KT CAVOK 25/22 Q1014
 
LBBG - Airport at Burgas
Burgas(Sarafovo) - Burgas - Bulgaria
Lat: 42.5000 - Long: 27.4833 - Elev: 28m
Distance from Vouhead Weather: (ENE) 432km
Updated: 04/07/2022 05:00
Clear
Clear
 Wind from WSW
Wind: WSW 7 km/h
Temperature: 15°C
Dew Point: 12°C
Humidity: 82%
Barometer: 1017 hPa
Clouds: Clear
Visibility: 10 km
2022/07/04 02:00 LBBG 040200Z AUTO 24004KT 220V280 9999 NCD 15/12 Q1017 NOSIG
LGPA - Airport "Panteleou"
Paros - South Aegean - Greece
Lat: 37.0000 - Long: 25.0667 - Elev: 36m
Distance from Vouhead Weather: (SSE) 436km
Updated: 04/07/2022 04:50

 Wind from N
Wind: N 31 km/h
Temperature: 22°C
Dew Point: 15°C
Humidity: 65%
Barometer: 1008 hPa
2022/07/04 01:50 LGPA 040150Z AUTO 36017KT //// // ////// 22/15 Q1008 RE//
 
LGNX - Airport at Naxos
Naxos - South Aegean - Greece
Lat: 37.0833 - Long: 25.3667 - Elev: 4m
Distance from Vouhead Weather: (SSE) 439km
Updated: 03/07/2022 19:50
NOT CURRENT METAR
Clear
Clear
 Wind from N
Wind: N 20 km/h, Gust: 39 km/h
Temperature: 25°C
Dew Point: 18°C
Humidity: 65%
Barometer: 1009 hPa
Summary: Clear
Visibility: Greater than 10 km
2022/07/03 16:50 LGNX 031650Z 36011G21KT CAVOK 25/18 Q1009
LTBJ - Airport "Adnan Menderes"
Izmir - Aegean(Izmir) - Turkey
Lat: 38.2667 - Long: 27.1333 - Elev: 120m
Distance from Vouhead Weather: (SE) 439km
Updated: 04/07/2022 04:50
Clear
Clear
 Wind from N
Wind: N 28 km/h
Temperature: 24°C
Dew Point: 10°C
Humidity: 41%
Barometer: 1008 hPa
Summary: Clear
Visibility: Greater than 10 km
2022/07/04 01:50 LTBJ 040150Z 35015KT CAVOK 24/10 Q1008 NOSIG
 
LDDU - Airport at Dubrovnik
Dubrovnik(Cilipi) - Dubrovnik Neretva - Croatia
Lat: 42.5667 - Long: 18.2667 - Elev: 165m
Distance from Vouhead Weather: (WNW) 450km
Updated: 04/07/2022 05:00
Clear
Clear
 Wind from calm
Wind: Calm 
Temperature: 23°C
Dew Point: 19°C
Humidity: 78%
Barometer: 1014 hPa
Summary: Clear
Visibility: Greater than 10 km
2022/07/04 02:00 LDDU 040200Z 00000KT CAVOK 23/19 Q1014 NOSIG
LYUZ - Airport at Uzice & Ponikve
(Unofficial airport name: Lepa Glava)
Uzice - Sumadija & W. Serbia - Serbia
Lat: 43.9000 - Long: 19.7000 - Elev: 904m
Distance from Vouhead Weather: (NW) 458km
Updated: 04/11/2021 01:30
NOT CURRENT METAR

 Wind from varies
Wind: Varies 9 km/h
Temperature: 14°C
Dew Point: 7°C
Humidity: 63%
Barometer: 1010 hPa
Visibility: 10 km
2021/11/03 23:30 LYUZ 032330Z AUTO VRB05KT 9999 ////// 14/07 Q1010
 
LGSM - Airport "Aristarchos of Samos"
Samos - North Aegean - Greece
Lat: 37.6833 - Long: 26.9167 - Elev: 6m
Distance from Vouhead Weather: (SE) 467km
Updated: 04/07/2022 02:50
NOT CURRENT METAR
Clear
Clear
 Wind from NNE
Wind: NNE 11 km/h
Temperature: 25°C
Dew Point: 15°C
Humidity: 54%
Barometer: 1007 hPa
Summary: Clear
Visibility: Greater than 10 km
2022/07/03 23:50 LGSM 032350Z 03006KT CAVOK 25/15 Q1007
LIBG - Airport "Marcello Arlotta"
Monteiasi(Taranto-Grottaglie) - Apulia(Taranto) - Italy
Lat: 40.5167 - Long: 17.3833 - Elev: 69m
Distance from Vouhead Weather: (W) 472km
Updated: 03/07/2022 20:50
NOT CURRENT METAR
Clear
Clear
 Wind from N
Wind: N 15 km/h
Temperature: 33°C
Dew Point: 15°C
Humidity: 34%
Barometer: 1013 hPa
Summary: Clear
Visibility: Greater than 10 km
2022/07/03 17:50 LIBG 031750Z 01008KT CAVOK 33/15 Q1013
 
LGKC - Airport at Kythira
Kythira(Heptanese) - Attica(Islands) - Greece
Lat: 36.2833 - Long: 23.0167 - Elev: 319m
Distance from Vouhead Weather: (S) 476km
Updated: 03/07/2022 22:50
NOT CURRENT METAR
Clear
Clear
 Wind from NNW
Wind: NNW 11 km/h
Temperature: 23°C
Dew Point: 20°C
Humidity: 83%
Barometer: 1014 hPa
Summary: Clear
Visibility: Greater than 10 km
2022/07/03 19:50 LGKC 031950Z 33006KT CAVOK 23/20 Q1014
LTBA - Airport "Ataturk"
Istanbul - Marmara(Istanbul) - Turkey
Lat: 40.9667 - Long: 28.8167 - Elev: 37m
Distance from Vouhead Weather: (E) 494km
Updated: 04/07/2022 04:50
Clear
Clear
 Wind from NE
Wind: NE 19 km/h
Temperature: 21°C
Dew Point: 15°C
Humidity: 69%
Barometer: 1015 hPa
Summary: Clear
Visibility: Greater than 10 km
2022/07/04 01:50 LTBA 040150Z 05010KT CAVOK 21/15 Q1015 NOSIG
   This data is not to be used for protection of life and property  
GO TO IONIA GO TO REA GO TO KIFISSIA GO TO SYROS GO TO DEXAMENI (BOLTEK) GO TO DEXAMENI (LR) GO TO LARISSA General Secretariat for Civil Protection European Emergency Call Number Video for Kastelorizo(Megisti) from ERT(state-TV) archives Municipality of Megisti website See it bigger